Regional Weather Roundup
Issued by NWS

Home | Current Version | Previous Version | Text Only | Print | Product List | Glossary Off
Versions: 1 2 3 4 5 6 7 8 9 10 11 12 13 14 15 16 17 18 19 20 21 22 23 24 25 26 27 28 29 30 31 32 33 34 35 36 37 38 39 40 41 42 43 44 45 46 47 48

000
ASUS45 KBOI 261710
RWRID
WEATHER ROUNDUP FOR IDAHO
NATIONAL WEATHER SERVICE BOISE ID
1000 AM MST FRI DEC 26 2014

NOTE: "FAIR" INDICATES FEW OR NO CLOUDS BELOW 12000 FEET
WITH NO SIGNIFICANT WEATHER AND/OR OBSTRUCTIONS TO VISIBILITY

IDZ012-014-261800-
SOUTHWEST IDAHO


CITY           SKY/WX    TMP DP  RH WIND       PRES   REMARKS
BOISE          SUNNY     30  24  78 NW10      30.17R WCI  21
CALDWELL       SUNNY     34  21  60 SW10      30.22R WCI  26
MOUNTAIN HOME  MOSUNNY   31  25  80 NW18      30.15R WCI  19
$$

IDZ016-017-261800-
SOUTHCENTRAL IDAHO


CITY           SKY/WX    TMP DP  RH WIND       PRES   REMARKS
BURLEY         CLOUDY    23  18  81 SW8       30.08R WCI  14
JEROME         CLOUDY    20  18  92 NE3       30.09R
TWIN FALLS     CLOUDY    22  18  85 SW12      30.09R WCI  10
$$

IDZ019>023-261800-
SOUTHEAST IDAHO


CITY           SKY/WX    TMP DP  RH WIND       PRES   REMARKS
IDAHO FALLS    MOSUNNY    8   5  87 CALM      30.06R
POCATELLO      MOSUNNY   13  11  92 SE3       30.08R
REXBURG        MOSUNNY    4   1  88 CALM      30.05R
$$

IDZ006-010-011-018-031-032-261800-
CENTRAL IDAHO MOUNTAINS


CITY           SKY/WX    TMP DP  RH WIND       PRES   REMARKS
MCCALL         CLOUDY    20  18  92 CALM      30.07R
HAILEY         MOSUNNY   12   3  67 CALM      30.04R
STANLEY          N/A     12   6  77 CALM      30.03R
SALMON         CLOUDY    21  16  79 CALM      30.11R
CHALLIS        CLOUDY    20  13  74 SW5       30.06R WCI  13
$$

IDZ002-004-006-007-026-261800-
NORTHERN IDAHO


CITY           SKY/WX    TMP DP  RH WIND       PRES   REMARKS
LEWISTON       MOSUNNY   35  29  78 CALM      30.26R
LOWELL           N/A     33  32  96 CALM      30.25R
COEUR D`ALENE  CLOUDY    25  21  86 NE5       30.21R WCI  19
MULLAN PASS    CLOUDY    20  14  77 N5        30.01R HAZE    WCI  13
$$


USA.gov is the U.S. government's official web portal to all federal, state and local government web resources and services.